TimeCDT,TemperatureF,Dew PointF,Humidity,Sea Level PressureIn,VisibilityMPH,Wind Direction,Wind SpeedMPH,Gust SpeedMPH,PrecipitationIn,Events,Conditions,WindDirDegrees,DateUTC
12:52 AM,79.0,75.0,88,30.01,9.0,SSW,13.8,-,N/A,,Clear,200,2013-08-26 05:52:00
1:52 AM,78.1,73.9,87,30.01,8.0,SSW,12.7,-,N/A,,Clear,200,2013-08-26 06:52:00
2:52 AM,77.0,73.0,88,30.00,9.0,SSW,12.7,-,N/A,,Clear,200,2013-08-26 07:52:00
3:52 AM,75.9,72.0,87,30.00,9.0,SSW,11.5,-,N/A,,Clear,200,2013-08-26 08:52:00
4:52 AM,75.0,72.0,90,30.00,9.0,SSW,10.4,-,N/A,,Clear,200,2013-08-26 09:52:00
5:52 AM,75.0,71.1,87,30.00,9.0,SSW,9.2,-,N/A,,Clear,200,2013-08-26 10:52:00
6:52 AM,73.9,70.0,87,30.01,8.0,SSW,9.2,-,N/A,,Clear,210,2013-08-26 11:52:00
7:52 AM,75.0,71.1,87,30.01,9.0,SSW,9.2,-,N/A,,Clear,210,2013-08-26 12:52:00
8:52 AM,79.0,71.1,77,30.00,10.0,SSW,12.7,19.6,N/A,,Clear,210,2013-08-26 13:52:00
9:52 AM,82.0,72.0,71,29.99,10.0,SW,13.8,21.9,N/A,,Clear,220,2013-08-26 14:52:00
10:52 AM,84.9,72.0,65,29.99,10.0,SSW,12.7,20.7,N/A,,Clear,210,2013-08-26 15:52:00
11:52 AM,88.0,73.0,61,29.98,10.0,SW,12.7,19.6,N/A,,Clear,220,2013-08-26 16:52:00
12:52 PM,89.1,73.9,61,29.97,10.0,South,13.8,-,N/A,,Clear,190,2013-08-26 17:52:00
1:52 PM,91.0,75.0,59,29.95,10.0,South,15.0,19.6,N/A,,Clear,190,2013-08-26 18:52:00
2:52 PM,91.0,77.0,63,29.94,10.0,South,13.8,-,N/A,,Clear,180,2013-08-26 19:52:00
3:52 PM,91.0,75.0,59,29.93,10.0,South,11.5,21.9,N/A,,Clear,190,2013-08-26 20:52:00
4:52 PM,91.9,75.9,59,29.91,10.0,South,16.1,-,N/A,,Clear,180,2013-08-26 21:52:00
5:52 PM,91.0,75.9,61,29.90,10.0,South,11.5,19.6,N/A,,Clear,190,2013-08-26 22:52:00
6:52 PM,87.1,75.9,69,29.88,10.0,South,9.2,-,N/A,,Clear,190,2013-08-26 23:52:00
7:52 PM,84.9,75.9,74,29.88,10.0,SSW,10.4,-,N/A,,Clear,200,2013-08-27 00:52:00
8:52 PM,81.0,73.9,79,29.88,10.0,South,8.1,-,N/A,,Clear,190,2013-08-27 01:52:00
9:52 PM,79.0,73.9,84,29.88,10.0,South,8.1,-,N/A,,Clear,190,2013-08-27 02:52:00
10:52 PM,78.1,73.9,87,29.88,10.0,SSW,8.1,-,N/A,,Clear,200,2013-08-27 03:52:00
11:52 PM,75.9,73.0,91,29.88,10.0,South,8.1,-,N/A,,Clear,180,2013-08-27 04:52:00